Henderson, NV

8:26 AM PST on January 22, 2018 (GMT -0800)
Henderson

Weather History for KHND - February, 2013

Change the Weather History Date:

Friday, February 1, 2013

  Actual Average (KLAS) Record (KLAS)
Temperature  
Mean Temperature 50 °F -  
Max Temperature 64 °F 59 °F 81 °F (2003)
Min Temperature 37 °F 36 °F 17 °F (1937)
Degree Days  
Heating Degree Days 14    
Moisture  
Dew Point 31 °F    
Average Humidity 51    
Maximum Humidity 74    
Minimum Humidity 28    
Precipitation  
Precipitation 0.00 in - - ()
Sea Level Pressure  
Sea Level Pressure 30.26 in    
Wind  
Wind Speed 5 mph (SSE)    
Max Wind Speed 10 mph    
Max Gust Speed -    
Visibility 10 miles    
Events      
Averages and records for this station are not official NWS values.
T = Trace of Precipitation, MM = Missing Value Source: NWS Daily Summary

Daily Weather History Graph

Daily Weather History Graph

Search for Another Location

Airport or City:

Trip Planner

Search our weather history database for the weather conditions in past years. The results will help you decide how hot, cold, wet, or windy it might be!

Date:

Astronomy

Feb. 01, 2013 Rise Set
Actual Time 6:40 AM PST 5:07 PM PST
Civil Twilight 6:13 AM PST 5:34 PM PST
Nautical Twilight 5:43 AM PST 6:05 PM PST
Astronomical Twilight 5:13 AM PST 6:35 PM PST
Moon 11:05 PM PST (2/1) 9:29 AM PST (2/1)
Length of Visible Light 11h 20m
Length of Day
10h 27m
Waning Gibbous, 69% of the Moon is Illuminated
Feb 1
Waning Gibbous
Feb 3
Last Quarter
Feb 9
New
Feb 17
First Quarter
Feb 25
Full

Hourly Weather History & Observations

Time (PST) Temp. Windchill Dew Point Humidity Pressure Visibility Wind Dir Wind Speed Gust Speed Precip Events Conditions
12:56 AM 43.0 °F 37.7 °F 31.1 °F 63% 30.24 in 10.0 mi South 9.2 mph - N/A   Clear
1:56 AM 41.0 °F 34.7 °F 31.1 °F 68% 30.24 in 10.0 mi South 10.4 mph - N/A   Clear
2:56 AM 38.8 °F - 31.1 °F 74% 30.25 in 10.0 mi Calm Calm - N/A   Clear
3:56 AM 38.8 °F - 31.1 °F 74% 30.24 in 10.0 mi Calm Calm - N/A   Clear
4:56 AM 39.9 °F 33.4 °F 31.1 °F 71% 30.24 in 10.0 mi South 10.4 mph - N/A   Clear
5:56 AM 39.9 °F 33.9 °F 31.1 °F 71% 30.25 in 10.0 mi SSW 9.2 mph - N/A   Clear
6:56 AM 37.9 °F 34.4 °F 30.0 °F 73% 30.29 in 10.0 mi South 4.6 mph - N/A   Clear
7:56 AM 41.9 °F - 32.0 °F 68% 30.30 in 10.0 mi Calm Calm - N/A   Clear
8:56 AM 50.0 °F - 32.9 °F 52% 30.30 in 10.0 mi Calm Calm - N/A   Clear
9:56 AM 54.9 °F - 32.0 °F 42% 30.30 in 10.0 mi Calm Calm - N/A   Clear
10:56 AM 57.9 °F - 31.1 °F 36% 30.29 in 10.0 mi Calm Calm - N/A   Clear
11:56 AM 59.9 °F - 30.0 °F 32% 30.27 in 10.0 mi ENE 3.5 mph - N/A   Clear
12:56 PM 61.9 °F - 30.0 °F 30% 30.24 in 10.0 mi Calm Calm - N/A   Clear
1:56 PM 61.9 °F - 30.0 °F 30% 30.22 in 10.0 mi NNE 8.1 mph - N/A   Clear
2:56 PM 63.9 °F - 30.0 °F 28% 30.22 in 10.0 mi Calm Calm - N/A   Clear
3:56 PM 64.4 °F - 30.2 °F 28% 30.20 in 10.0 mi ENE 4.6 mph - N/A   Clear
4:56 PM 59.9 °F - 31.1 °F 34% 30.22 in 10.0 mi Calm Calm - N/A   Clear
5:56 PM 54.9 °F - 34.0 °F 45% 30.24 in 10.0 mi Calm Calm - N/A   Clear
6:56 PM 51.8 °F - 33.8 °F 50% 30.24 in 10.0 mi SSE 8.1 mph - N/A   Clear
7:56 PM 50.0 °F - 32.9 °F 52% 30.28 in 10.0 mi South 10.4 mph - N/A   Clear
8:56 PM 47.8 °F - 32.9 °F 56% 30.29 in 10.0 mi SSE 8.1 mph - N/A   Clear
9:56 PM 47.8 °F - 30.0 °F 50% 30.30 in 10.0 mi South 4.6 mph - N/A   Clear
10:56 PM 46.9 °F - 30.0 °F 52% 30.30 in 10.0 mi SSE 8.1 mph - N/A   Clear
11:56 PM 45.9 °F - 30.0 °F 54% 30.30 in 10.0 mi Calm Calm - N/A   Clear